Back to catalog

COSMOS 1056

AliveMilitaryLEO
NORAD 11133·PAYLOAD·🇷🇺 Russia

Launched Dec 5, 1978 from Plesetsk Cosmodrome

Loading…

Next Passes (next 24 hours)

TLE

FreshSource: Space-Track

Epoch: Sep 14, 2026, 11:36 UTC

1 11133U 78109F   26257.48400795 -.00000030  00000-0 -10122-3 0  9997
2 11133  74.0141  70.1470 0019897 184.4796 204.9255 12.44517724170451

Track COSMOS 1056 in real time with AllMySat

Download on the App Store